Regional Weather Roundup
Issued by NWS

Home | Current Version | Previous Version | Text Only | Print | Product List | Glossary On
Versions: 1 2 3 4 5 6 7 8 9 10 11 12 13 14 15 16 17 18 19 20 21 22 23 24 25 26 27 28 29 30 31 32 33 34 35 36 37 38 39 40 41 42 43 44 45 46 47 48 49 50
000
ASUS43 KLSX 191507
RWRMO

WEATHER SUMMARY FOR MISSOURI
NATIONAL WEATHER SERVICE SPRINGFIELD MO
900 AM CST THU JAN 19 2017

NOTE: "FAIR" INDICATES FEW OR NO CLOUDS BELOW 12,000 FEET WITH NO
       SIGNIFICANT WEATHER AND/OR OBSTRUCTIONS TO VISIBILITY.
       CURRENT SKY AND/OR WEATHER CONDITIONS ARE NOT AVAILABLE FOR
       CHILLICOTHE AND FARMINGTON.

MOZ001>031-035>038-043-044-053-054-191600-
...NORTHERN AND WESTERN MISSOURI...

CITY           SKY/WX    TMP DP  RH WIND       PRES   REMARKS
KANSAS CTY INT DRZL/FOG  44  42  93 SE6       29.80F VSB 1/4
KANSAS C DTWN  CLOUDY    46  44  93 CALM      29.80F
LEE`S SUMMIT   FOG       44  44 100 SE6       29.81S VSB 3/4
ST JOSEPH      FOG       43  43 100 CALM      29.81S VSB 3/4
CHILLICOTHE      N/A     41  41 100 E5        29.85S
KIRKSVILLE     FOG       38  38 100 SE5       29.86R VSB 1/4

$$
MOZ066>068-077>081-088>096-101>105-191600-
...SOUTHWEST MISSOURI...

CITY           SKY/WX    TMP DP  RH WIND       PRES   REMARKS
SPRINGFIELD    CLOUDY    44  43  96 SE13      29.82F
JOPLIN         CLOUDY    47  47 100 S6        29.81F
BRANSON        FOG       41  41 100 CALM      29.85F VSB 1/16

$$
MOZ032>034-039>042-045>050-055>058-069>072-191600-
...CENTRAL MISSOURI...

CITY           SKY/WX    TMP DP  RH WIND       PRES   REMARKS
COLUMBIA       FOG       43  43 100 SE8       29.86S VSB 1/4
JEFFERSON CITY CLOUDY    44  42  93 SE9       29.87F FOG
ROLLA          CLOUDY    42  42 100 E7G17     29.84F FOG
SEDALIA        FOG       45  44  97 SE8       29.85F VSB 3/4
WHITEMAN AFB   FOG       45  45 100 S7        29.82S VSB 3/4
WARRENSBURG    CLOUDY    45  43  93 SE7       29.82S FOG
OSAGE BEACH    CLOUDY    44  43  96 SE6       29.86F FOG

$$
MOZ051-052-059>065-191600-
...EAST CENTRAL MISSOURI...

CITY           SKY/WX    TMP DP  RH WIND       PRES   REMARKS
ST LOUIS INTL  LGT RAIN  45  41  86 SE7       29.92F FOG
SPIRIT OF STL  LGT RAIN  43  43 100 E5        29.90F FOG
ST CHARLES     LGT RAIN  42  42 100 E8        29.91F VSB 1

$$
MOZ072>076-082>087-097>100-106>115-191600-
...SOUTH CENTRAL AND SOUTHEAST MISSOURI...

CITY           SKY/WX    TMP DP  RH WIND       PRES   REMARKS
CAPE GIRARDEAU CLOUDY    46  45  96 E7        29.90S FOG
FARMINGTON     LGT RAIN  44  43  96 E6        29.87F FOG
POPLAR BLUFF   CLOUDY    46  46 100 NE5       29.89R FOG
WEST PLAINS    FOG       44  43  96 E6        29.88R VSB 1

$$


USA.gov is the U.S. government's official web portal to all federal, state and local government web resources and services.